Location: Ç?ral? Körfezi
(36.3984°N, 30.4829°E)
Time: 09:36:20
(UTC+00:00)

Meteor 2-3 Rocket - Pass Details

Date: 04 August 2024
Orbit: 844 x 881 km, 81.2° (Epoch: 15 September)

Event Time Altitude Azimuth Distance (km) Brightness Sun altitude
Exits shadow 19:31:30 37° 211° (SSW) 1,305 4.5 -25.6°
Maximum altitude 19:33:43 66° 280° (W) 927 4.0 -25.9°
Drops below altitude 10° 19:39:18 10° 2° (N) 2,475 6.7 -26.6°
Sets 19:41:44 0° 6° (N) 3,412 7.5 -27.0°
